N4MRV-1 Weather Reports


time (UTC)temp
C
wind
direction
speed
KPH
gust
KPH
rain 1hr
cm
rain 24hr
cm
rain mn
cm
humidity
%
barometer
mb
20260505210015 27 225 3.2 17.7 0.00 0.00 0.00 35 1011.5
20260505204515 27 225 3.2 11.3 0.00 0.00 0.00 33 1011.4
20260505203015 28 225 3.2 8.0 0.00 0.00 0.00 32 1011.4
20260505201515 28 248 3.2 19.3 0.00 0.00 0.00 31 1011.4
20260505200015 28 225 3.2 14.5 0.00 0.00 0.00 32 1011.7
20260505194535 28 203 3.2 11.3 0.00 0.00 0.00 30 1011.8
20260505193017 28 225 1.6 8.0 0.00 0.00 0.00 33 1012.0
20260505191538 28 248 3.2 12.9 0.00 0.00 0.00 30 1012.1
20260505190017 28 225 3.2 14.5 0.00 0.00 0.00 30 1012.6
20260505184537 27 225 3.2 9.7 0.00 0.00 0.00 33 1012.6
20260505183017 27 338 3.2 14.5 0.00 0.00 0.00 34 1012.8
20260505181537 27 248 3.2 9.7 0.00 0.00 0.00 35 1013.0
20260505180017 27 293 3.2 11.3 0.00 0.00 0.00 37 1013.1
20260505174517 27 315 3.2 12.9 0.00 0.00 0.00 38 1013.2
20260505173017 26 225 3.2 9.7 0.00 0.00 0.00 40 1013.5
20260505171557 26 338 3.2 9.7 0.00 0.00 0.00 40 1013.5
20260505170017 26 180 3.2 12.9 0.00 0.00 0.00 42 1013.8
20260505164537 26 158 3.2 16.1 0.00 0.00 0.00 42 1014.0
20260505163017 27 203 3.2 6.4 0.00 0.00 0.00 44 1014.1
20260505161517 27 180 1.6 12.9 0.00 0.00 0.00 44 1014.3
20260505153016 25 23 1.6 12.9 0.00 0.00 0.00 49 1014.8
20260505151517 24 180 3.2 14.5 0.00 0.00 0.00 51 1014.8
20260505124536 16 0 1.6 4.8 0.00 0.00 0.00 70 1015.0
20260505123016 16 0 1.6 4.8 0.00 0.00 0.00 71 1015.0
20260505121516 16 0 1.6 6.4 0.00 0.00 0.00 72 1014.9
20260505120016 15 0.0 3.2 0.00 0.00 0.00 75 1014.7
20260505114556 15 0.0 1.6 0.00 0.00 0.00 76 1014.7
20260505113016 15 0 1.6 4.8 0.00 0.00 0.00 76 1014.4
20260505111516 14 0.0 3.2 0.00 0.00 0.00 76 1014.3
20260505101516 15 0.0 6.4 0.00 0.00 0.00 72 1013.8
20260505100016 15 0.0 6.4 0.00 0.00 0.00 71 1013.7
20260505094536 15 0 1.6 3.2 0.00 0.00 0.00 70 1013.7
20260505093016 16 203 1.6 4.8 0.00 0.00 0.00 69 1013.7
20260505091516 16 158 1.6 4.8 0.00 0.00 0.00 69 1013.7
20260505090016 16 135 1.6 6.4 0.00 0.00 0.00 68 1013.7
20260505084516 16 248 1.6 4.8 0.00 0.00 0.00 68 1013.8
20260505083016 16 225 1.6 6.4 0.00 0.00 0.00 68 1013.6
20260505081516 16 135 1.6 11.3 0.00 0.00 0.00 67 1013.6
20260505080016 16 180 1.6 6.4 0.00 0.00 0.00 67 1013.7
20260505074516 16 225 1.6 9.7 0.00 0.00 0.00 66 1013.6
20260505073036 16 225 1.6 9.7 0.00 0.00 0.00 65 1013.4
20260505071516 16 225 1.6 3.2 0.00 0.00 0.00 65 1013.3
20260505070016 16 248 1.6 4.8 0.00 0.00 0.00 65 1013.2
20260505064516 16 248 1.6 6.4 0.00 0.00 0.00 64 1013.2
20260505063015 16 0.0 3.2 0.00 0.00 0.00 64 1013.1
20260505061515 16 225 1.6 3.2 0.00 0.00 0.00 63 1013.1
20260505060015 16 0.0 3.2 0.00 0.00 0.00 63 1013.2
20260505054516 16 68 1.6 4.8 0.00 0.00 0.00 62 1013.2
20260505053015 15 0.0 6.4 0.00 0.00 0.00 63 1013.2
20260505051515 15 0.0 6.4 0.00 0.00 0.00 64 1013.1
20260505041516 15 0.0 0.0 0.00 0.00 0.00 64 1012.7
20260505040035 15 0.0 0.0 0.00 0.00 0.00 64 1012.6
20260505034516 15 0.0 0.0 0.00 0.00 0.00 62 1012.6
20260505033016 16 0.0 0.0 0.00 0.00 0.00 62 1012.7
20260505031516 16 0.0 0.0 0.00 0.00 0.00 61 1012.7
20260505030016 16 0.0 0.0 0.00 0.00 0.00 60 1012.8
20260505024516 17 0.0 0.0 0.00 0.00 0.00 59 1012.8
20260505023016 17 0.0 0.0 0.00 0.00 0.00 57 1012.7
20260505021536 17 0.0 0.0 0.00 0.00 0.00 57 1012.6
20260505020016 18 0.0 0.0 0.00 0.00 0.00 56 1012.6
20260505014516 18 0.0 0.0 0.00 0.00 0.00 54 1012.5
20260505013016 19 0.0 0.0 0.00 0.00 0.00 50 1012.4
20260505011516 19 0.0 0.0 0.00 0.00 0.00 49 1012.1
20260505010016 20 0.0 0.0 0.00 0.00 0.00 48 1012.0
20260505004516 20 0.0 0.0 0.00 0.00 0.00 47 1011.7
20260505003016 20 90 1.6 6.4 0.00 0.00 0.00 48 1011.7
20260505001515 21 0.0 1.6 0.00 0.00 0.00 44 1011.7
20260505000016 21 0.0 1.6 0.00 0.00 0.00 42 1012.0
20260504234515 22 0.0 1.6 0.00 0.00 0.00 40 1011.9
20260504233015 22 0.0 1.6 0.00 0.00 0.00 39 1011.9
20260504231515 23 0.0 1.6 0.00 0.00 0.00 37 1011.6
20260504230015 24 113 1.6 6.4 0.00 0.00 0.00 36 1011.5
20260504224556 25 113 1.6 4.8 0.00 0.00 0.00 35 1011.8
20260504223015 25 225 1.6 4.8 0.00 0.00 0.00 34 1011.8
20260504221515 24 315 3.2 11.3 0.00 0.00 0.00 35 1011.6
20260504220016 24 113 1.6 14.5 0.00 0.00 0.00 38 1011.6
20260504214515 24 315 1.6 11.3 0.00 0.00 0.00 36 1011.5
20260504213015 24 248 1.6 11.3 0.00 0.00 0.00 34 1011.6
20260504211515 24 203 3.2 12.9 0.00 0.00 0.00 34 1011.7